CZ-6A DEB, 54896

Orbit data source: Space-Track

CZ-6A DEB, 54896 is space debris in SSO originally from a launch on Fri, 11 Nov 2022 UTC launched from the Taiyaun Space Center, China (TSC). Debris objects in space refer to the collection of defunct objects orbiting the Earth. Examples of debris include non-operational satellites, rocket bodies, and fragments generated from explosions, collisions, or faulty payload assembly.

Loading next visibility...
Identifier
54896, 2022-151QH
Orbit
SSO
Country
Flag of CNCN / PRC
Related business
Manufacturer
SAST
Mission
Spacecraft
Bus & Motor
Unknown
Mass
Unknown
Launch date (UTC)
2022-11-11 (4 years ago)
Launch vehicle
Unknown
Launch site
Taiyaun Space Center, China (TSC)
Object type
Payload
Rocket body
Debris
Shape & HBR
Unknown shape, 0.1 m
Radar Cross Section
Medium (>0.1 m² and <1 m²)

Expand to show TLE details & history
Last TLE update: 2 days ago

TLE from 2 days ago
0 CZ-6A DEB
1 54896U 22151QH  26171.41579943  .00000083  00000-0  76049-4 0  9993
2 54896  98.8562 161.2206 0064079 356.6426   3.4304 14.05638145182099
Epoch: 2026-06-20T09:58Z
TLE epoch observation values (Epoch: 2026-06-20T09:58:45.070Z)
Latitude
-0°
Longitude
102.90207°
Altitude
830.829 km
Speed
7.461 km/s
True Right ascension
10h 44m 52s
True Declination
0° 00' 00"
Sunlit
Object was in daylight at epoch
Visualization orbit readout
Latitude
Unknown
Longitude
Unknown
Altitude
Unknown
Speed
Unknown
Apparent Right ascension
Unknown
Apparent Declination
Unknown
Sunlit
N/A
Visualization observer readout
Local Sidereal Time
21:35:10
Azimuth
Unknown
Elevation
Unknown
Doppler factor
Unknown
Orbital elements
Apogee altitude
917.976 km
Perigee altitude
825.066 km
Semi-major axis
7,249.658 km
Eccentricity
0.00641
Inclination
98.8562°
RAAN
161.2206°
Arg. of periapsis
356.6426°
True anomaly
3.47469°
Mean anomaly
3.4304°
Eccentric anomaly
3.45251°
Mean motion
3.51615 °/min
Orbital period
102.38 mins
BSTAR
0.000076049
Loading maneuver chart data...
Computing Atmospheric mass density...
Loading historical data...
Loading historical data...
Loading historical data...
Loading historical data...
Loading historical data...
Loading historical data...
Loading historical data...

Documentation

Showing up to 5 results
|